Weather History for Fort Myers, FL

Change the Weather History Date:

Friday, December 7, 2012

  Actual Average Record
Temperature  
Mean Temperature 72 °F 68 °F  
Max Temperature 82 °F 78 °F 90 °F (1978)
Min Temperature 61 °F 58 °F 36 °F (1937)
Degree Days  
Heating Degree Days 0 2  
Month to date heating degree days 0 9  
Since 1 July heating degree days 15 27  
Cooling Degree Days 7 5  
Month to date cooling degree days 43 35  
Year to date cooling degree days 4256 3898  
Growing Degree Days 22 (Base 50)    
Moisture  
Dew Point 63 °F    
Average Humidity 86    
Maximum Humidity 100    
Minimum Humidity 48    
Precipitation  
Precipitation T in 0.05 in 2.43 in (1979)
Month to date precipitation 0.02 0.32  
Year to date precipitation 47.45 54.54  
Sea Level Pressure  
Sea Level Pressure 29.95 in    
Wind  
Wind Speed 4 mph (ENE)    
Max Wind Speed 13 mph    
Max Gust Speed 15 mph    
Visibility 7 miles    
Events      
T = Trace of Precipitation, MM = Missing Value Source: NWS Daily Summary

Daily Weather History Graph

Daily Weather History Graph

Search for Another Location

Airport:

Trip Planner

Search our weather history database for the weather conditions in past years. The results will help you decide how hot, cold, wet, or windy it might be!

Date:

Astronomy

Dec. 07, 2012 Rise Set
Actual Time 7:03 AM EST 5:35 PM EST
Civil Twilight 6:38 AM EST 6:00 PM EST
Nautical Twilight 6:09 AM EST 6:29 PM EST
Astronomical Twilight 5:40 AM EST 6:57 PM EST
Moon 12:52 AM EST (12/7) 1:03 PM EST (12/7)
Length of Visible Light 11h 22m
Length of Day
10h 31m
Last Quarter, 39% of the Moon is Illuminated
Dec 7
Last Quarter
Dec 13
New
Dec 20
First Quarter
Dec 28
Full
Jan 4
Last Quarter

Hourly Weather History & Observations

Time (EST) Temp. Heat Index Dew Point Humidity Pressure Visibility Wind Dir Wind Speed Gust Speed Precip Events Conditions
12:53 AM 64.9 °F - 63.0 °F 93% 29.95 in 10.0 mi NE 4.6 mph - N/A   Clear
1:53 AM 64.0 °F - 63.0 °F 96% 29.94 in 10.0 mi NE 5.8 mph - N/A   Clear
2:53 AM 64.0 °F - 63.0 °F 96% 29.94 in 10.0 mi ENE 3.5 mph - N/A   Clear
3:36 AM 62.6 °F - 62.6 °F 100% 29.93 in 2.0 mi Calm Calm - N/A   Clear
3:46 AM 64.4 °F - 62.6 °F 94% 29.93 in 5.0 mi Calm Calm - N/A   Clear
3:53 AM 63.0 °F - 62.1 °F 97% 29.94 in 2.0 mi Calm Calm - N/A   Clear
3:58 AM 62.6 °F - 62.6 °F 100% 29.93 in 0.8 mi Calm Calm - N/A   Clear
4:13 AM 62.6 °F - 62.6 °F 100% 29.93 in 2.0 mi Calm Calm - N/A   Clear
4:22 AM 62.6 °F - 62.6 °F 100% 29.93 in 0.8 mi Calm Calm - N/A   Clear
4:47 AM 62.6 °F - 60.8 °F 94% 29.93 in 2.0 mi Calm Calm - N/A   Clear
4:48 AM 62.1 °F - 61.0 °F 96% 29.94 in 2.5 mi Calm Calm - N/A   Clear
4:59 AM 62.6 °F - 62.6 °F 100% 29.93 in 5.0 mi Calm Calm - N/A   Clear
5:50 AM 62.6 °F - 60.8 °F 94% 29.94 in 5.0 mi ENE 3.5 mph - N/A   Scattered Clouds
5:53 AM 62.1 °F - 61.0 °F 96% 29.94 in 3.0 mi ENE 3.5 mph - N/A   Mostly Cloudy
5:56 AM 62.6 °F - 62.6 °F 100% 29.94 in 1.8 mi ENE 4.6 mph - N/A   Mostly Cloudy
6:09 AM 62.6 °F - 62.6 °F 100% 29.94 in 0.8 mi ENE 3.5 mph - N/A   Mist
6:31 AM 62.6 °F - 62.6 °F 100% 29.94 in 2.0 mi NE 3.5 mph - N/A   Overcast
6:39 AM 62.6 °F - 62.6 °F 100% 29.94 in 5.0 mi Calm Calm - N/A   Mostly Cloudy
6:53 AM 62.1 °F - 61.0 °F 96% 29.96 in 8.0 mi East 3.5 mph - N/A   Partly Cloudy
7:53 AM 63.0 °F - 62.1 °F 97% 29.97 in 9.0 mi East 4.6 mph - N/A   Clear
8:53 AM 68.0 °F - 64.9 °F 90% 29.99 in 10.0 mi ENE 3.5 mph - N/A   Clear
9:53 AM 73.0 °F - 66.0 °F 79% 30.00 in 10.0 mi East 8.1 mph - N/A   Clear
10:53 AM 77.0 °F - 66.0 °F 69% 29.99 in 10.0 mi East 5.8 mph - N/A   Clear
11:28 AM 75.2 °F - 64.4 °F 69% 29.98 in 10.0 mi ENE 3.5 mph - N/A   Mostly Cloudy
11:53 AM 79.0 °F - 64.9 °F 62% 29.97 in 10.0 mi SE 4.6 mph - N/A   Scattered Clouds
12:53 PM 80.1 °F 81.5 °F 63.0 °F 56% 29.94 in 10.0 mi South 6.9 mph - N/A   Scattered Clouds
1:53 PM 81.0 °F 81.9 °F 62.1 °F 52% 29.91 in 10.0 mi SSW 5.8 mph - N/A   Scattered Clouds
2:53 PM 81.0 °F 82.2 °F 63.0 °F 54% 29.90 in 10.0 mi WNW 8.1 mph - N/A   Clear
3:53 PM 80.1 °F 81.5 °F 63.0 °F 56% 29.90 in 10.0 mi West 5.8 mph - N/A   Clear
4:53 PM 78.1 °F - 57.9 °F 50% 29.91 in 10.0 mi West 10.4 mph - N/A   Mostly Cloudy
5:53 PM 73.9 °F - 64.0 °F 71% 29.93 in 10.0 mi West 5.8 mph - N/A   Partly Cloudy
6:53 PM 72.0 °F - 64.9 °F 78% 29.95 in 10.0 mi WNW 5.8 mph - N/A   Scattered Clouds
8:53 PM 71.1 °F - 64.9 °F 81% 29.97 in 10.0 mi Calm Calm - N/A   Mostly Cloudy
9:53 PM 70.0 °F - 66.9 °F 90% 29.98 in 10.0 mi SE 3.5 mph - 0.00 in   Overcast
10:53 PM 70.0 °F - 66.9 °F 90% 29.98 in 10.0 mi Calm Calm - N/A   Overcast
11:53 PM 70.0 °F - 66.9 °F 90% 29.98 in 10.0 mi Calm Calm - N/A   Overcast